CZ-6A DEB, 64635

Orbit data source: Space-Track

CZ-6A DEB, 64635 is space debris in LEO originally from a launch on Tue, 06 Aug 2024 UTC launched from the Taiyaun Space Center, China (TSC). Debris objects in space refer to the collection of defunct objects orbiting the Earth. Examples of debris include non-operational satellites, rocket bodies, and fragments generated from explosions, collisions, or faulty payload assembly.

Loading next visibility...
Identifier
64635, 2024-140ADZ
Orbit
LEO
Country
Flag of CNCN / PRC
Related business
Manufacturer
SAST
Mission
Spacecraft
Bus & Motor
Unknown
Mass
Unknown
Launch date (UTC)
2024-08-06 (2 years ago)
Launch vehicle
Unknown
Launch site
Taiyaun Space Center, China (TSC)
Object type
Payload
Rocket body
Debris
Shape & HBR
Unknown shape, 0.1 m
Radar Cross Section
Small (<0.1 m²)

Expand to show TLE details & history
Last TLE update: 2 days ago

TLE from 2 days ago
0 CZ-6A DEB
1 64635U 24140ADZ 26169.58888211  .00004107  00000-0  76767-3 0  9998
2 64635  89.1197 279.6550 0097652 244.4532 114.6561 14.61691953 93087
Epoch: 2026-06-18T14:07Z
TLE epoch observation values (Epoch: 2026-06-18T14:07:59.414Z)
Latitude
-0.00003°
Longitude
160.82739°
Altitude
720.173 km
Speed
7.48 km/s
True Right ascension
18h 38m 37s
True Declination
0° 00' 00"
Sunlit
Object was in full shadow at epoch
Visualization orbit readout
Latitude
Unknown
Longitude
Unknown
Altitude
Unknown
Speed
Unknown
Apparent Right ascension
Unknown
Apparent Declination
Unknown
Sunlit
N/A
Visualization observer readout
Local Sidereal Time
07:19:05
Azimuth
Unknown
Elevation
Unknown
Doppler factor
Unknown
Orbital elements
Apogee altitude
753.576 km
Perigee altitude
615.638 km
Semi-major axis
7,062.744 km
Eccentricity
0.00977
Inclination
89.1197°
RAAN
279.655°
Arg. of periapsis
244.4532°
True anomaly
115.66788°
Mean anomaly
114.6561°
Eccentric anomaly
115.16251°
Mean motion
3.65665 °/min
Orbital period
98.45 mins
BSTAR
0.00076767
Loading maneuver chart data...
Computing Atmospheric mass density...
Loading historical data...
Loading historical data...
Loading historical data...
Loading historical data...
Loading historical data...
Loading historical data...
Loading historical data...

Documentation

Showing up to 5 results
|